EW4074 Weather Reports


Display with metric or nautical units.
time (UTC)temp
F
wind
direction
speed
MPH
gust
MPH
rain 1hr
in
rain 24hr
in
rain mn
in
humidity
%
barometer
mb
20260906221305 80 344 1.0 5.0 0.00 0.00 0.00 60 1043.9
20260906220800 80 288 1.0 4.0 0.00 0.00 0.00 61 1043.7
20260906220253 80 355 1.0 4.0 0.00 0.00 0.00 59 1043.7
20260906215747 81 297 1.0 4.0 0.00 0.00 0.00 57 1043.7
20260906215456 81 310 1.0 4.0 0.00 0.00 0.00 55 1043.5
20260906215216 81 337 1.0 4.0 0.00 0.00 0.00 57 1043.5
20260906214229 82 239 0.0 4.0 0.00 0.00 0.00 54 1043.5
20260906213723 82 247 1.0 4.0 0.00 0.00 0.00 57 1043.4
20260906213217 81 337 1.0 5.0 0.00 0.00 0.00 55 1043.4
20260906212712 81 44 1.0 5.0 0.00 0.00 0.00 58 1043.4
20260906212205 81 303 1.0 4.0 0.00 0.00 0.00 56 1043.7
20260906211659 81 126 1.0 5.0 0.00 0.00 0.00 56 1043.7
20260906211149 81 23 1.0 5.0 0.00 0.00 0.00 56 1043.7
20260906210647 81 273 1.0 5.0 0.00 0.00 0.00 57 1043.5
20260906210141 82 229 1.0 5.0 0.00 0.00 0.00 53 1043.5
20260906205856 82 241 1.0 3.0 0.00 0.00 0.00 58 1043.5
20260906205129 83 124 1.0 3.0 0.00 0.00 0.00 56 1043.5
20260906204844 82 133 1.0 5.0 0.00 0.00 0.00 57 1043.5
20260906204117 82 65 1.0 5.0 0.00 0.00 0.00 55 1043.5
20260906203606 82 138 1.0 5.0 0.00 0.00 0.00 55 1043.6
20260906203105 82 234 2.0 5.0 0.00 0.00 0.00 53 1043.6
20260906202559 82 295 1.0 5.0 0.00 0.00 0.00 54 1043.6
20260906202312 82 346 1.0 5.0 0.00 0.00 0.00 59 1043.5
20260906201547 82 150 1.0 3.0 0.00 0.00 0.00 55 1043.5
20260906201041 82 33 2.0 4.0 0.00 0.00 0.00 56 1043.5
20260906200535 82 298 1.0 5.0 0.00 0.00 0.00 56 1043.5
20260906200023 82 331 1.0 5.0 0.00 0.00 0.00 56 1043.5
20260906195522 82 164 1.0 6.0 0.00 0.01 0.00 56 1043.5
20260906195017 82 311 1.0 8.0 0.00 0.03 0.00 58 1043.7
20260906194511 82 164 1.0 7.0 0.00 0.04 0.00 55 1043.7
20260906194006 82 80 2.0 6.0 0.00 0.12 0.00 53 1043.7
20260906193458 82 229 1.0 6.0 0.00 0.13 0.00 55 1043.8
20260906192948 81 109 1.0 6.0 0.00 0.15 0.00 54 1043.8
20260906192442 81 138 2.0 7.0 0.00 0.15 0.00 55 1043.8
20260906191940 82 311 1.0 7.0 0.00 0.15 0.00 56 1043.8
20260906191434 81 336 2.0 6.0 0.00 0.15 0.00 57 1043.8
20260906190929 81 136 2.0 6.0 0.00 0.15 0.00 60 1043.8
20260906190423 81 87 1.0 5.0 0.00 0.15 0.00 59 1043.8
20260906185917 81 217 1.0 5.0 0.00 0.15 0.00 59 1043.8
20260906185411 81 160 2.0 5.0 0.00 0.15 0.00 58 1043.8
20260906185124 82 92 1.0 5.0 0.00 0.15 0.00 61 1044.0
20260906184359 81 158 1.0 6.0 0.00 0.15 0.00 60 1044.0
20260906183848 81 82 1.0 6.0 0.00 0.15 0.00 60 1044.4
20260906183348 81 130 1.0 6.0 0.00 0.15 0.00 61 1044.4
20260906182841 81 100 2.0 7.0 0.00 0.15 0.00 64 1044.4
20260906182335 81 196 2.0 7.0 0.00 0.15 0.00 66 1044.4
20260906181828 80 156 2.0 9.0 0.00 0.15 0.00 64 1044.4
20260906181318 80 198 2.0 9.0 0.00 0.15 0.00 62 1044.4
20260906180816 80 326 2.0 8.0 0.00 0.15 0.00 65 1044.4
20260906180535 80 102 2.0 8.0 0.00 0.15 0.00 67 1044.4
20260906175805 80 312 2.0 6.0 0.00 0.15 0.00 67 1044.4
20260906175524 80 130 2.0 7.0 0.00 0.15 0.00 67 1044.2
20260906174748 80 65 2.0 7.0 0.00 0.15 0.00 64 1044.2
20260906174246 79 243 2.0 5.0 0.00 0.15 0.00 65 1044.2
20260906174002 80 255 2.0 8.0 0.00 0.15 0.00 65 1044.4
20260906173235 79 115 2.0 8.0 0.00 0.15 0.00 71 1044.4
20260906172724 78 313 1.0 6.0 0.00 0.15 0.00 71 1044.4
20260906172451 79 109 2.0 9.0 0.00 0.15 0.00 68 1044.5
20260906171716 78 259 2.0 9.0 0.00 0.15 0.00 71 1044.5
20260906171431 79 84 2.0 8.0 0.00 0.15 0.00 72 1044.5
20260906170704 78 90 2.0 8.0 0.00 0.15 0.00 68 1044.5
20260906170154 79 53 1.0 8.0 0.00 0.15 0.00 70 1044.5
20260906165653 78 181 1.0 9.0 0.00 0.15 0.00 72 1044.5
20260906165146 78 119 2.0 9.0 0.00 0.15 0.00 71 1044.6
20260906164640 78 58 2.0 8.0 0.00 0.15 0.00 71 1044.6
20260906164134 78 331 2.0 8.0 0.00 0.15 0.00 72 1044.6
20260906163628 78 43 2.0 9.0 0.00 0.15 0.00 68 1044.7
20260906163122 78 44 1.0 9.0 0.00 0.15 0.00 72 1044.7
20260906162612 78 85 1.0 4.0 0.00 0.15 0.00 73 1044.7
20260906162111 77 88 1.0 5.0 0.00 0.15 0.00 74 1044.8
20260906161604 77 336 1.0 5.0 0.00 0.15 0.00 70 1044.8
20260906161059 77 48 1.0 5.0 0.00 0.15 0.00 71 1044.8
20260906160553 77 215 2.0 11.0 0.00 0.15 0.00 71 1044.9
20260906160047 76 229 2.0 11.0 0.00 0.15 0.00 74 1044.9
20260906155547 76 139 2.0 7.0 0.00 0.17 0.00 73 1044.9
20260906155031 76 289 2.0 5.0 0.00 0.17 0.00 72 1045.0
20260906154528 76 165 2.0 8.0 0.00 0.17 0.00 73 1045.0
20260906154036 76 297 2.0 8.0 0.00 0.17 0.00 77 1045.0
20260906153516 76 97 2.0 8.0 0.00 0.17 0.00 73 1044.9
20260906153234 76 86 1.0 6.0 0.00 0.17 0.00 74 1044.9
20260906152505 76 228 1.0 4.0 0.00 0.17 0.00 73 1044.9
20260906151956 76 61 1.0 8.0 0.00 0.17 0.00 77 1045.0
20260906151445 75 240 1.0 8.0 0.00 0.17 0.00 76 1045.0
20260906151206 75 309 1.0 5.0 0.00 0.17 0.00 73 1045.0
20260906150444 76 61 1.0 8.0 0.00 0.17 0.00 77 1044.9
20260906145944 75 115 1.0 8.0 0.00 0.17 0.00 73 1044.9
20260906145443 75 36 1.0 5.0 0.00 0.17 0.00 77 1044.9
20260906144944 75 163 1.0 5.0 0.00 0.17 0.00 77 1044.8
20260906144710 75 332 1.0 3.0 0.00 0.17 0.00 79 1044.8
20260906143946 74 103 1.0 5.0 0.00 0.17 0.00 79 1044.8
20260906143447 74 93 1.0 5.0 0.00 0.17 0.00 77 1044.9
20260906142941 74 147 1.0 3.0 0.00 0.17 0.00 77 1044.9
20260906142429 74 317 1.0 5.0 0.00 0.17 0.00 77 1044.9
20260906141927 74 80 1.0 5.0 0.00 0.17 0.00 77 1044.6
20260906141428 75 282 0.0 2.0 0.00 0.17 0.00 80 1044.6
20260906140927 75 222 0.0 2.0 0.00 0.17 0.00 81 1044.6
20260906140652 74 305 0.0 2.0 0.00 0.17 0.00 80 1044.5
20260906135927 73 138 1.0 5.0 0.00 0.17 0.00 80 1044.5
20260906135654 73 67 1.0 5.0 0.00 0.17 0.00 81 1044.5
20260906134930 72 122 1.0 3.0 0.00 0.17 0.00 82 1044.6
20260906134430 71 323 1.0 3.0 0.00 0.17 0.00 83 1044.6
20260906133924 71 86 1.0 2.0 0.00 0.17 0.00 84 1044.6
20260906133413 71 80 1.0 3.0 0.00 0.17 0.00 85 1044.5
20260906132900 70 88 1.0 5.0 0.00 0.17 0.00 86 1044.5
20260906132836 70 305 0.0 5.0 0.00 0.17 0.00 88 1044.7
20260906131840 70 344 0.0 2.0 0.00 0.17 0.00 89 1044.7
20260906131340 69 90 0.0 3.0 0.00 0.17 0.00 93 1044.7
20260906130833 68 329 0.0 3.0 0.00 0.17 0.00 95 1044.5
20260906130551 68 149 0.0 1.0 0.00 0.17 0.00 99 1044.5
20260906125822 67 127 0.0 0.0 0.00 0.17 0.00 99 1044.5
20260906125309 66 127 0.0 0.0 0.00 0.17 0.00 99 1044.5
20260906124809 65 127 0.0 0.0 0.00 0.17 0.00 99 1044.5
20260906124304 66 159 0.0 0.0 0.00 0.17 0.00 99 1044.5
20260906123758 65 159 0.0 0.0 0.00 0.17 0.00 99 1044.5
20260906123245 65 159 0.0 0.0 0.00 0.17 0.00 99 1044.5
20260906122745 65 159 0.0 0.0 0.00 0.17 0.00 99 1044.5
20260906122239 64 159 0.0 0.0 0.00 0.17 0.00 99 1044.2
20260906121727 62 159 0.0 0.0 0.00 0.17 0.00 99 1044.2
20260906121228 60 159 0.0 0.0 0.00 0.17 0.00 99 1044.2
20260906120723 59 159 0.0 0.0 0.00 0.17 0.00 99 1043.9
20260906120435 58 159 0.0 0.0 0.00 0.17 0.00 99 1043.9
20260906115929 58 159 0.0 0.0 0.00 0.17 0.00 99 1043.9
20260906115428 58 159 0.0 0.0 0.00 0.17 0.00 99 1043.6
20260906114922 57 159 0.0 0.0 0.00 0.17 0.00 99 1043.6
20260906114147 57 159 0.0 0.0 0.00 0.17 0.00 99 1043.6
20260906113646 57 159 0.0 0.0 0.00 0.17 0.00 99 1043.4
20260906113358 57 159 0.0 0.0 0.00 0.17 0.00 99 1043.4
20260906112633 57 159 0.0 0.0 0.00 0.17 0.00 99 1043.4
20260906112127 57 159 0.0 0.0 0.00 0.17 0.00 99 1043.3
20260906111622 57 159 0.0 0.0 0.00 0.17 0.00 99 1043.3
20260906111555 57 159 0.0 0.0 0.00 0.17 0.00 99 1043.3
20260906110602 57 159 0.0 0.0 0.00 0.17 0.00 99 1043.3
20260906110104 56 159 0.0 0.0 0.00 0.17 0.00 99 1043.3
20260906105553 56 159 0.0 0.0 0.00 0.17 0.00 99 1043.3
20260906105315 56 159 0.0 0.0 0.00 0.17 0.00 99 1043.3
20260906104546 56 159 0.0 0.0 0.00 0.17 0.00 99 1043.3
20260906104040 56 159 0.0 0.0 0.00 0.17 0.00 99 1043.3
20260906103534 56 159 0.0 0.0 0.00 0.17 0.00 99 1042.9
20260906103021 56 159 0.0 0.0 0.00 0.17 0.00 99 1042.9
20260906102743 56 159 0.0 0.0 0.00 0.17 0.00 99 1042.9
20260906102247 56 159 0.0 0.0 0.00 0.17 0.00 99 1042.8
20260906101509 56 159 0.0 0.0 0.00 0.17 0.00 99 1042.8
20260906100959 56 159 0.0 0.0 0.00 0.17 0.00 99 1042.8
20260906100454 56 159 0.0 0.0 0.00 0.17 0.00 99 1042.7
20260906095943 56 159 0.0 0.0 0.00 0.17 0.00 99 1042.7
20260906095441 57 159 0.0 0.0 0.00 0.17 0.00 99 1042.7
20260906094930 57 159 0.0 0.0 0.00 0.17 0.00 99 1042.5
20260906094429 57 159 0.0 0.0 0.00 0.17 0.00 99 1042.5
20260906093924 58 159 0.0 0.0 0.00 0.17 0.00 99 1042.5
20260906093417 58 159 0.0 0.0 0.00 0.17 0.00 99 1042.4
20260906092912 58 159 0.0 0.0 0.00 0.17 0.00 99 1042.4
20260906092626 58 159 0.0 0.0 0.00 0.17 0.00 99 1042.4
20260906091901 58 159 0.0 0.0 0.00 0.17 0.00 99 1042.3
20260906091353 58 159 0.0 0.0 0.00 0.17 0.00 99 1042.3
20260906090848 58 159 0.0 0.0 0.00 0.17 0.00 99 1042.2
20260906090342 58 159 0.0 0.0 0.00 0.17 0.00 99 1042.2
20260906085836 58 159 0.0 0.0 0.00 0.17 0.00 99 1042.2
20260906085330 58 159 0.0 0.0 0.00 0.17 0.00 99 1042.2
20260906084824 58 159 0.0 0.0 0.00 0.17 0.00 99 1042.2
20260906084317 58 159 0.0 0.0 0.00 0.17 0.00 99 1042.2
20260906083805 58 159 0.0 0.0 0.00 0.17 0.00 99 1042.2
20260906083531 58 159 0.0 0.0 0.00 0.17 0.00 99 1042.2
20260906082801 59 159 0.0 0.0 0.00 0.17 0.00 99 1042.2
20260906082253 59 159 0.0 0.0 0.00 0.17 0.00 99 1042.0
20260906081748 59 159 0.0 0.0 0.00 0.17 0.00 99 1042.0
20260906081241 59 159 0.0 0.0 0.00 0.17 0.00 99 1042.0
20260906080736 59 159 0.0 0.0 0.00 0.17 0.00 99 1042.1
20260906080223 59 159 0.0 0.0 0.00 0.17 0.00 99 1042.1
20260906075724 59 159 0.0 0.0 0.00 0.17 0.00 99 1042.1
20260906075218 59 159 0.0 0.0 0.00 0.17 0.00 99 1042.0
20260906074712 59 159 0.0 0.0 0.00 0.17 0.00 99 1042.0
20260906074206 60 159 0.0 0.0 0.00 0.17 0.00 99 1042.0
20260906073653 60 159 0.0 0.0 0.00 0.17 0.00 98 1041.9
20260906073153 60 159 0.0 0.0 0.00 0.17 0.00 98 1041.9
20260906072648 60 159 0.0 0.0 0.00 0.17 0.00 98 1041.9
20260906072404 60 159 0.0 0.0 0.00 0.17 0.00 98 1041.8
20260906071635 61 159 0.0 0.0 0.00 0.17 0.00 99 1041.8
20260906071348 61 159 0.0 0.0 0.00 0.17 0.00 99 1041.8
20260906070624 61 159 0.0 0.0 0.00 0.17 0.00 99 1041.9
20260906070333 61 159 0.0 0.0 0.00 0.17 0.00 99 1041.9
20260906065609 61 159 0.0 0.0 0.00 0.17 0.00 99 1041.9
20260906065102 61 159 0.0 0.0 0.00 0.17 0.00 99 1041.8
20260906064556 61 159 0.0 0.0 0.00 0.17 0.00 98 1041.8
20260906064059 61 159 0.0 0.0 0.00 0.17 0.00 98 1041.8
20260906063556 61 159 0.0 0.0 0.00 0.17 0.00 99 1041.8
20260906063056 61 159 0.0 0.0 0.00 0.17 0.00 99 1041.8
20260906062557 61 159 0.0 0.0 0.00 0.17 0.00 98 1041.8
20260906062056 61 159 0.0 0.0 0.00 0.17 0.00 98 1041.7
20260906061556 62 159 0.0 0.0 0.00 0.17 0.00 98 1041.7
20260906061057 62 159 0.0 0.0 0.00 0.17 0.00 98 1041.7
20260906060556 62 159 0.0 0.0 0.00 0.17 0.00 98 1041.6
20260906060059 62 159 0.0 0.0 0.00 0.17 0.00 98 1041.6
20260906055817 62 159 0.0 0.0 0.00 0.17 0.00 98 1041.6
20260906055326 63 159 0.0 0.0 0.00 0.17 0.00 98 1041.8
20260906054542 63 159 0.0 0.0 0.00 0.17 0.00 98 1041.8
20260906054300 63 159 0.0 0.0 0.00 0.17 0.00 98 1041.8
20260906053540 63 159 0.0 0.0 0.00 0.17 0.00 98 1041.8
20260906053301 63 159 0.0 0.0 0.00 0.17 0.00 98 1041.8
20260906052540 64 159 0.0 0.0 0.00 0.17 0.00 98 1041.8
20260906052040 64 159 0.0 0.0 0.00 0.17 0.00 98 1041.8
20260906051541 64 159 0.0 0.0 0.00 0.17 0.00 98 1041.8
20260906051043 64 159 0.0 0.0 0.00 0.17 0.00 98 1041.8
20260906050543 64 159 0.0 0.0 0.00 0.17 0.00 98 1041.8
20260906050037 65 159 0.0 0.0 0.00 0.17 0.00 98 1041.8
20260906045526 65 159 0.0 0.0 0.00 0.17 0.00 98 1041.8
20260906045228 65 159 0.0 0.0 0.00 0.17 0.00 98 1041.8
20260906044458 65 159 0.0 0.0 0.00 0.17 0.00 98 1041.8
20260906043946 65 159 0.0 0.0 0.00 0.17 0.00 98 1041.8
20260906043435 66 159 0.0 0.0 0.00 0.17 0.00 98 1042.1
20260906042924 66 159 0.0 0.0 0.00 0.17 0.00 98 1042.1
20260906042418 66 159 0.0 0.0 0.00 0.17 0.00 98 1042.1
20260906041908 66 159 0.0 0.0 0.00 0.17 0.00 98 1042.3
20260906041406 66 159 0.0 0.0 0.00 0.17 0.00 98 1042.3
20260906040855 67 159 0.0 0.0 0.00 0.17 0.00 98 1042.3
20260906040354 67 159 0.0 0.0 0.00 0.17 0.00 97 1042.2
20260906035844 67 159 0.0 0.0 0.00 0.17 0.17 97 1042.2
20260906035342 67 159 0.0 0.0 0.00 0.17 0.17 97 1042.2
20260906034836 67 159 0.0 0.0 0.00 0.17 0.17 97 1042.2
20260906034327 67 159 0.0 0.0 0.00 0.17 0.17 97 1042.2
20260906033824 68 159 0.0 0.0 0.00 0.17 0.17 97 1042.3
20260906033319 68 159 0.0 0.0 0.00 0.17 0.17 97 1042.3
20260906033040 68 159 0.0 0.0 0.00 0.17 0.17 97 1042.3
20260906032307 68 159 0.0 0.0 0.00 0.17 0.17 98 1042.2
20260906031800 68 159 0.0 0.0 0.00 0.17 0.17 97 1042.2
20260906031517 69 159 0.0 0.0 0.00 0.17 0.17 97 1042.2
20260906030744 69 159 0.0 0.0 0.00 0.17 0.17 97 1042.1
20260906030243 69 159 0.0 0.0 0.00 0.17 0.17 97 1042.1
20260906025736 69 159 0.0 0.0 0.00 0.17 0.17 97 1042.1
20260906025452 69 159 0.0 0.0 0.00 0.17 0.17 97 1041.8
20260906024724 69 159 0.0 0.0 0.00 0.17 0.17 97 1041.8
20260906024449 69 159 0.0 0.0 0.00 0.17 0.17 97 1041.8
20260906023933 69 159 0.0 0.0 0.00 0.17 0.17 97 1041.7
20260906023202 70 159 0.0 0.0 0.00 0.17 0.17 97 1041.7
20260906022700 70 159 0.0 0.0 0.00 0.17 0.17 97 1041.7
20260906022155 70 159 0.0 0.0 0.00 0.17 0.17 97 1041.6
20260906021644 70 159 0.0 0.0 0.00 0.17 0.17 97 1041.6
20260906021142 70 159 0.0 0.0 0.00 0.17 0.17 97 1041.6
20260906020636 70 159 0.0 0.0 0.00 0.17 0.17 97 1041.5
20260906020130 70 159 0.0 0.0 0.00 0.17 0.17 97 1041.5
20260906015619 70 159 0.0 0.0 0.00 0.17 0.17 97 1041.5
20260906015118 70 159 0.0 0.0 0.00 0.17 0.17 97 1041.3
20260906014612 70 159 0.0 0.0 0.00 0.17 0.17 97 1041.3
20260906014106 70 159 0.0 0.0 0.00 0.17 0.17 97 1041.3
20260906013600 70 159 0.0 0.0 0.00 0.17 0.17 97 1041.3
20260906013054 70 159 0.0 0.0 0.00 0.17 0.17 97 1041.3
20260906012544 70 159 0.0 0.0 0.00 0.17 0.17 97 1041.3
20260906012038 71 159 0.0 0.0 0.00 0.17 0.17 97 1041.0
20260906011536 71 159 0.0 0.0 0.00 0.17 0.17 97 1041.0
20260906011030 71 159 0.0 0.0 0.00 0.17 0.17 97 1041.0
20260906010524 71 159 0.0 0.0 0.00 0.17 0.17 96 1040.8
20260906010018 71 159 0.0 0.0 0.00 0.17 0.17 96 1040.8
20260906005512 71 159 0.0 0.0 0.00 0.17 0.17 96 1040.8
20260906005006 71 159 0.0 0.0 0.00 0.17 0.17 96 1040.7
20260906004455 71 159 0.0 0.0 0.00 0.17 0.17 96 1040.7
20260906003954 71 159 0.0 0.0 0.00 0.17 0.17 96 1040.7
20260906003444 71 159 0.0 0.0 0.00 0.17 0.17 96 1040.7
20260906002942 71 159 0.0 0.0 0.00 0.17 0.17 96 1040.7
20260906002436 71 159 0.0 0.0 0.00 0.17 0.17 96 1040.7
20260906001930 71 159 0.0 0.0 0.00 0.17 0.17 96 1040.6
20260906001424 71 159 0.0 0.0 0.00 0.17 0.17 96 1040.6
20260906000913 71 159 0.0 0.0 0.00 0.17 0.17 96 1040.6
20260906000634 71 159 0.0 0.0 0.00 0.17 0.17 95 1040.4
20260905235905 71 159 0.0 0.0 0.00 0.17 0.17 95 1040.4
20260905235625 71 159 0.0 0.0 0.00 0.17 0.17 95 1040.4
20260905234854 72 159 0.0 0.0 0.00 0.17 0.17 95 1040.4
20260905234348 72 159 0.0 0.0 0.00 0.17 0.17 95 1040.4
20260905234102 72 159 0.0 0.0 0.00 0.17 0.17 95 1040.3
20260905233822 72 159 0.0 0.0 0.00 0.17 0.17 94 1040.3
20260905233046 72 159 0.0 0.0 0.00 0.17 0.17 94 1040.3
20260905232323 73 159 0.0 0.0 0.00 0.17 0.17 94 1040.3
20260905231818 73 159 0.0 0.0 0.00 0.17 0.17 93 1040.3
20260905231312 73 159 0.0 0.0 0.00 0.17 0.17 93 1040.3
20260905230806 73 159 0.0 0.0 0.00 0.17 0.17 93 1040.3
20260905230259 74 159 0.0 0.0 0.00 0.17 0.17 92 1040.3
20260905230021 74 159 0.0 0.0 0.00 0.17 0.17 92 1040.3
20260905225254 74 159 0.0 0.0 0.00 0.17 0.17 91 1040.3
20260905224752 75 159 0.0 0.0 0.00 0.17 0.17 91 1040.3
20260905224249 76 159 0.0 0.0 0.00 0.17 0.17 90 1040.3
20260905223750 76 159 0.0 0.0 0.00 0.17 0.17 89 1040.1
20260905223249 77 159 0.0 0.0 0.00 0.17 0.17 89 1040.1
20260905222744 77 159 0.0 0.0 0.00 0.17 0.17 88 1040.1
20260905222244 78 159 0.0 2.0 0.00 0.17 0.17 87 1039.9